[[{"header":{"parameterUnit":"m.s-1","parameterCategory":1,"la1":30.2991,"la2":30.254,"lo1":-89.0895,"lo2":-89.0444,"dy":0.0017,"dx":0.0017,"nx":28,"ny":28,"refTime":"2025-11-12T09:00:00:Z","depth":0,"parameterNumber":2,"parameterNumberName":"U-component_of_WINDS"},"data":[0,0,0,0,0,0,0,0,0,0,0,0,0,0,0,0,0,0,0,0,0,0,0,0,0,0,0,0,0,0,0,0,0,0,0,0,0,0,0,0,0,0,0,0,0,0,0,0,0,0,0,0,0,0,0,0,0,0,0.5008,0.5009,0,0.5063,0.5064,0.5065,0.5072,0.5071,0.5071,0.507,0.5128,0.5129,0.5131,0,0,0,0,0,0,0,0,0,0,0,0,0,0.4909,0.4911,0.5008,0.5009,0.501,0.5063,0.5064,0.5065,0.5072,0.5071,0.5071,0.507,0.5127,0.5129,0.5132,0,0,0,0,0,0,0,0,0,0,0,0,0,0.4957,0.4911,0.5008,0.502,0.5021,0.5063,0.5064,0.5065,0.5072,0.5071,0.5071,0.507,0.5126,0.5129,0.5132,0.5166,0,0,0.5141,0.5142,0,0,0,0,0,0,0,0,0.4954,0.496,0.5017,0.5019,0.5021,0.506,0.505,0.5099,0.5072,0.5053,0.507,0.5069,0.5106,0.511,0.5122,0.5169,0.5171,0.5141,0.5143,0.5145,0.5145,0,0,0,0,0,0,0,0.4951,0.4958,0.503,0.5018,0.502,0.5022,0.5028,0.5059,0.5083,0.5055,0.5055,0.5062,0.5107,0.512,0.5124,0.5172,0.5141,0.5144,0.5146,0.5147,0.5247,0.5248,0,0,0,0,0,0,0.4945,0.4955,0.5028,0.5032,0.4985,0.5024,0.5031,0.5048,0.5083,0.5087,0.5062,0.5062,0.5115,0.512,0.5126,0.5167,0.5145,0.5147,0.5149,0.5246,0.5247,0.5248,0,0,0,0,0,0,0.4943,0.4952,0.5026,0.4994,0.5003,0.5027,0.5046,0.505,0.5063,0.5088,0.5093,0.5071,0.5114,0.5122,0.5156,0.5169,0.5149,0.5151,0.5245,0.5247,0.5248,0.5249,0,0,0,0,0,0,0.494,0.4951,0.4964,0.4994,0.5005,0.5055,0.5047,0.5051,0.5068,0.5068,0.5098,0.5102,0.5114,0.5151,0.5159,0.5172,0.5154,0.5244,0.5246,0.5247,0.5248,0.525,0.5252,0,0,0,0,0,0.4937,0.4963,0.4965,0.4974,0.5022,0.5056,0.5062,0.5075,0.5069,0.5082,0.5098,0.5101,0.5166,0.5154,0.5163,0.5178,0.5243,0.5245,0.5247,0.5247,0.525,0.5252,0,0,0,0,0,0,0.4935,0.4967,0.497,0.5007,0.5028,0.5057,0.5074,0.5078,0.5102,0.5101,0.5117,0.5123,0.5156,0.5171,0.5157,0.5212,0.5204,0.5208,0.5201,0.5204,0.5206,0.5201,0.5156,0,0,0,0,0,0.4939,0.4964,0.4991,0.5021,0.5031,0.5051,0.5066,0.5074,0.5097,0.5107,0.5126,0.5148,0.5173,0.519,0.5214,0.525,0.5256,0.5265,0.5267,0.5268,0.5271,0.5289,0.5293,0.5255,0.5255,0.5255,0,0,0.4948,0.4968,0.4983,0.5021,0.5039,0.5063,0.5059,0.5085,0.5103,0.5111,0.5143,0.5158,0.5184,0.5218,0.5235,0.5231,0.5283,0.5271,0.5272,0.5274,0.5292,0.5295,0.5299,0.5256,0.5256,0.5255,0,0,0.4975,0.4994,0.502,0.5038,0.5064,0.5077,0.5083,0.5111,0.512,0.5153,0.5159,0.5181,0.5224,0.5242,0.5257,0.5289,0.5292,0.5297,0.5308,0.5325,0.5328,0.5331,0.5341,0.5345,0.53,0.53,0.53,0,0.4983,0.502,0.5033,0.5059,0.5075,0.5082,0.5108,0.5124,0.5158,0.5168,0.5164,0.5218,0.5236,0.5274,0.5281,0.5293,0.53,0.5293,0.5327,0.533,0.5332,0.5342,0.5346,0.53,0.53,0.53,0.53,0,0.5027,0.5052,0.507,0.5101,0.5119,0.5145,0.5161,0.5178,0.5184,0.5197,0.5229,0.5251,0.528,0.5289,0.5296,0.5328,0.5325,0.5324,0.5316,0.5336,0.5345,0.5349,0.53,0.53,0.53,0.53,0,0,0.5055,0.5092,0.5099,0.5112,0.5141,0.5161,0.5187,0.5214,0.5227,0.5249,0.527,0.5306,0.5305,0.5321,0.533,0.5346,0.5368,0.5343,0.5343,0.5345,0.5402,0.5402,0.5406,0.537,0.5371,0.5372,0.5399,0,0.5085,0.5131,0.5143,0.5181,0.5204,0.521,0.5232,0.5252,0.5265,0.5286,0.53,0.5324,0.5321,0.5331,0.5347,0.5362,0.5379,0.536,0.5389,0.539,0.5381,0.5411,0.5411,0.5436,0.5403,0.5404,0.5404,0,0.5126,0.5149,0.5189,0.5213,0.5224,0.5243,0.5268,0.5288,0.5311,0.5318,0.5336,0.5343,0.5369,0.536,0.5396,0.5382,0.5395,0.5404,0.5405,0.5408,0.5398,0.5413,0.5445,0.5448,0.541,0.541,0.541,0,0.5141,0.5181,0.521,0.5222,0.5252,0.5265,0.5278,0.5299,0.5314,0.5336,0.5346,0.5371,0.5384,0.5403,0.5416,0.5409,0.545,0.5442,0.5456,0.5456,0.5464,0.5463,0.5497,0.5474,0.5474,0.5474,0.5473,0,0.5173,0.5197,0.5217,0.5235,0.5262,0.5275,0.5301,0.5314,0.5333,0.5353,0.536,0.5379,0.5395,0.5416,0.5426,0.5453,0.5459,0.5466,0.5468,0.5465,0.5463,0.5472,0.5471,0.5475,0.5474,0.5474,0.5474,0,0.5193,0.5208,0.524,0.5265,0.5272,0.529,0.5311,0.5328,0.5341,0.5366,0.5372,0.5391,0.5416,0.5431,0.5462,0.5469,0.5498,0.55,0.549,0.5491,0.5503,0.5501,0.5543,0.5549,0.5523,0.5523,0.5523,0,0.5212,0.523,0.5257,0.5271,0.5283,0.5306,0.532,0.5334,0.5349,0.5375,0.5388,0.5413,0.5433,0.5472,0.5489,0.5512,0.5514,0.5527,0.5518,0.5513,0.5513,0.5511,0.5512,0.5528,0.5529,0.5529,0.5529,0,0.5242,0.5248,0.527,0.5293,0.5311,0.533,0.5349,0.536,0.5376,0.5393,0.5417,0.5433,0.5464,0.5488,0.5512,0.5526,0.553,0.5532,0.5536,0.5532,0.5525,0.5527,0.5493,0.5531,0.5531,0.553,0.553,0.553,0.5262,0.5278,0.5299,0.5322,0.5337,0.5354,0.5371,0.5385,0.5406,0.5431,0.5438,0.5464,0.5484,0.5517,0.5531,0.555,0.5549,0.5555,0.5556,0.5557,0.5557,0.5522,0.5555,0.5555,0.5555,0.5555,0.5555,0,0.5292,0.5305,0.5326,0.5352,0.537,0.5372,0.5393,0.5407,0.5429,0.5448,0.5467,0.5495,0.5518,0.5535,0.5559,0.5571,0.5573,0.5577,0.5575,0.5578,0.5558,0.5551,0.5574,0.5574,0.5574,0.5574,0.5574,0.5574,0.5309,0.5336,0.5344,0.5378,0.5391,0.5416,0.5427,0.5443,0.5458,0.5488,0.5507,0.5518,0.5536,0.556,0.5581,0.5586,0.5594,0.5596,0.5601,0.5582,0.558,0.5578,0.5571,0.5598,0.5598,0.5619,0.5619,0.562]},{"header":{"parameterUnit":"m.s-1","parameterCategory":1,"la1":30.2991,"la2":30.254,"lo1":-89.0895,"lo2":-89.0444,"dy":0.0017,"dx":0.0017,"nx":28,"ny":28,"refTime":"2025-11-12T09:00:00:Z","depth":0,"parameterNumber":3,"parameterNumberName":"V-component_of_WINDS"},"data":[0,0,0,0,0,0,0,0,0,0,0,0,0,0,0,0,0,0,0,0,0,0,0,0,0,0,0,0,0,0,0,0,0,0,0,0,0,0,0,0,0,0,0,0,0,0,0,0,0,0,0,0,0,0,0,0,0,0,1.9202,1.9201,0,1.9098,1.9097,1.9096,1.9035,1.9035,1.9035,1.9035,1.892,1.8917,1.8914,0,0,0,0,0,0,0,0,0,0,0,0,0,1.9344,1.9341,1.9203,1.9201,1.92,1.9098,1.9097,1.9095,1.9035,1.9035,1.9035,1.9035,1.8921,1.8918,1.8914,0,0,0,0,0,0,0,0,0,0,0,0,0,1.9265,1.9341,1.9203,1.9158,1.9153,1.9098,1.9097,1.9095,1.9036,1.9035,1.9035,1.9035,1.8922,1.8918,1.8914,1.8893,0,0,1.89,1.8899,0,0,0,0,0,0,0,0,1.9269,1.926,1.9166,1.9161,1.9155,1.908,1.9104,1.9027,1.9036,1.908,1.9035,1.9035,1.8973,1.8964,1.8945,1.8888,1.8883,1.89,1.8897,1.8896,1.8894,0,0,0,0,0,0,0,1.9275,1.9264,1.9161,1.9165,1.9158,1.9141,1.9129,1.9089,1.9029,1.9076,1.9071,1.906,1.897,1.8949,1.8942,1.8881,1.89,1.8896,1.8894,1.8892,1.8801,1.8801,0,0,0,0,0,0,1.9289,1.9269,1.9164,1.9158,1.9213,1.9139,1.9126,1.9104,1.9029,1.9018,1.9061,1.9058,1.8957,1.8947,1.8938,1.8908,1.8896,1.8892,1.8889,1.88,1.8801,1.8801,0,0,0,0,0,0,1.9292,1.928,1.9168,1.9212,1.9197,1.9137,1.9113,1.9102,1.9082,1.9018,1.9006,1.9051,1.8956,1.8944,1.8905,1.8903,1.889,1.8886,1.88,1.88,1.8801,1.8849,0,0,0,0,0,0,1.9296,1.9281,1.9275,1.9213,1.9195,1.914,1.9113,1.91,1.9075,1.9071,1.9006,1.8995,1.8955,1.8912,1.8901,1.8897,1.8882,1.88,1.88,1.8801,1.8847,1.8851,1.8854,0,0,0,0,0,1.9301,1.9291,1.9274,1.9262,1.9185,1.914,1.9129,1.9086,1.9076,1.9067,1.9026,1.8997,1.8906,1.8908,1.8895,1.889,1.88,1.88,1.8801,1.8846,1.885,1.8854,0,0,0,0,0,0,1.9351,1.9282,1.9263,1.9232,1.9193,1.913,1.9118,1.9092,1.9052,1.9049,1.8995,1.8981,1.8947,1.8915,1.8919,1.8866,1.8849,1.8847,1.8888,1.8892,1.8895,1.8903,1.8879,0,0,0,0,0,1.9359,1.9331,1.927,1.9249,1.9231,1.9178,1.9156,1.9127,1.9082,1.9065,1.9021,1.8977,1.8938,1.8913,1.8874,1.8843,1.8827,1.8833,1.8837,1.884,1.8838,1.8818,1.882,1.8802,1.8802,1.8802,0,0,1.9374,1.9332,1.9317,1.9258,1.9224,1.9193,1.9164,1.9133,1.9109,1.9059,1.902,1.8987,1.8934,1.8899,1.8881,1.8871,1.884,1.884,1.8843,1.8839,1.8819,1.882,1.8822,1.8802,1.8802,1.8802,0,0,1.9385,1.9352,1.9331,1.9298,1.9248,1.9213,1.9208,1.9149,1.9126,1.9087,1.9049,1.9018,1.8953,1.8917,1.889,1.889,1.8861,1.8879,1.8895,1.8877,1.8878,1.8879,1.8878,1.8878,1.8877,1.8877,1.8877,0,1.9409,1.9364,1.9322,1.9294,1.9268,1.9225,1.9201,1.9171,1.9109,1.9091,1.9082,1.9,1.8961,1.8917,1.8917,1.8897,1.8888,1.8885,1.8882,1.8882,1.8882,1.888,1.888,1.888,1.8879,1.8879,1.8879,0,1.9396,1.9365,1.9353,1.9298,1.9271,1.9246,1.9197,1.9175,1.9148,1.9114,1.9074,1.9027,1.8977,1.8965,1.8937,1.8916,1.8912,1.8893,1.8874,1.8887,1.8884,1.8883,1.8883,1.8882,1.8882,1.8881,0,0,1.9433,1.9357,1.9353,1.9328,1.927,1.9244,1.9216,1.917,1.9152,1.9111,1.9084,1.9031,1.9014,1.8984,1.8951,1.8935,1.8937,1.8918,1.8916,1.8922,1.891,1.8923,1.8923,1.8919,1.8918,1.8918,1.8914,0,1.9436,1.9386,1.9347,1.931,1.9281,1.924,1.9215,1.9176,1.9143,1.9111,1.9074,1.9037,1.9018,1.8999,1.8982,1.8941,1.8933,1.8941,1.8891,1.8889,1.8904,1.8922,1.8936,1.8934,1.8913,1.8912,1.8912,0,1.9431,1.9395,1.9356,1.9302,1.9288,1.9267,1.9222,1.9193,1.9147,1.9124,1.9092,1.9059,1.9025,1.9012,1.8963,1.8969,1.8947,1.8924,1.8922,1.8914,1.8901,1.8913,1.8933,1.8932,1.891,1.891,1.891,0,1.9461,1.9403,1.9372,1.9351,1.9288,1.9274,1.9246,1.92,1.9175,1.9135,1.9118,1.9074,1.905,1.9015,1.8971,1.8966,1.8926,1.891,1.8905,1.8906,1.8897,1.8897,1.8912,1.8885,1.8885,1.8885,1.8885,0,1.9467,1.9444,1.9385,1.9366,1.9339,1.9295,1.9268,1.9237,1.9197,1.9169,1.913,1.9105,1.9049,1.9016,1.8981,1.8945,1.8934,1.8913,1.8904,1.8916,1.8919,1.8899,1.8898,1.8885,1.8885,1.8885,1.8885,0,1.9495,1.9455,1.9419,1.9362,1.9348,1.933,1.9281,1.9259,1.9226,1.9191,1.9181,1.9127,1.9086,1.9039,1.8982,1.8958,1.8925,1.8912,1.8941,1.8936,1.8933,1.8934,1.8934,1.8931,1.8908,1.8909,1.8909,0,1.9501,1.9483,1.9426,1.9406,1.938,1.9348,1.9324,1.9279,1.9254,1.9202,1.9186,1.9143,1.9106,1.9043,1.8997,1.8953,1.8938,1.8941,1.893,1.8943,1.8936,1.8937,1.8934,1.8943,1.8944,1.8944,1.8944,0,1.9514,1.9496,1.9463,1.9424,1.9396,1.9362,1.9326,1.9311,1.9259,1.9233,1.9192,1.9164,1.9107,1.9064,1.9015,1.8984,1.8954,1.8949,1.8945,1.8956,1.8973,1.8963,1.8948,1.8948,1.8948,1.8947,1.8947,1.8947,1.953,1.9513,1.947,1.9435,1.9404,1.9372,1.9349,1.9314,1.928,1.9232,1.9208,1.9167,1.9121,1.9052,1.9022,1.8988,1.8978,1.8973,1.8971,1.8971,1.8974,1.8981,1.8979,1.8979,1.8979,1.8978,1.8978,0,1.9541,1.9512,1.9481,1.9433,1.9405,1.9384,1.9343,1.932,1.9286,1.9247,1.9212,1.9165,1.9124,1.9076,1.9031,1.9013,1.8998,1.9002,1.9002,1.8995,1.8985,1.8993,1.9015,1.9015,1.9015,1.9015,1.9015,1.9015,1.9543,1.9512,1.9489,1.9441,1.9412,1.9374,1.9353,1.9322,1.929,1.9241,1.9207,1.9177,1.9134,1.9085,1.9046,1.9032,1.9017,1.9025,1.9007,1.8999,1.8996,1.8993,1.8999,1.9022,1.9022,1.9019,1.9019,1.9019]}]]